EDT,Max TemperatureF,Mean TemperatureF,Min TemperatureF,Max Dew PointF,MeanDew PointF,Min DewpointF,Max Humidity, Mean Humidity, Min Humidity, Max Sea Level PressureIn, Mean Sea Level PressureIn, Min Sea Level PressureIn, Max VisibilityMiles, Mean VisibilityMiles, Min VisibilityMiles, Max Wind SpeedMPH, Mean Wind SpeedMPH, Max Gust SpeedMPH,PrecipitationIn, CloudCover, Events, WindDirDegrees
2013-5-1,62,48,33,46,41,32,100,75,39,30.48,30.44,30.37,10,10,0,15,5,20,0.00,0,Fog,77
2013-5-2,71,53,35,47,38,32,100,67,23,30.47,30.43,30.38,10,10,6,16,3,22,0.00,2,Rain,31
2013-5-3,51,43,35,41,40,34,100,81,56,30.48,30.43,30.35,10,10,9,24,9,29,0.00,5,,32
2013-5-4,54,46,39,41,38,36,100,75,41,30.36,30.33,30.29,10,10,8,23,10,31,0.00,3,,50
2013-5-5,55,48,41,43,40,37,93,75,51,30.31,30.29,30.26,10,10,1,17,9,21,0.00,5,,66
2013-5-6,64,52,41,50,45,41,100,83,52,30.30,30.24,30.19,10,5,0,12,5,,0.00,5,Fog-Rain,145
2013-5-7,69,56,44,57,53,43,100,85,64,30.21,30.18,30.15,10,8,0,14,5,,0.00,5,Fog-Rain,149
2013-5-8,69,61,53,63,57,52,100,89,62,30.22,30.16,30.07,10,8,0,21,7,26,0.01,6,Fog-Rain-Thunderstorm,128
2013-5-9,68,60,51,61,56,49,100,90,68,30.06,29.96,29.90,10,6,0,14,6,,0.00,8,Fog-Rain-Thunderstorm,181
2013-5-10,75,63,51,57,54,49,100,78,44,29.99,29.96,29.90,10,8,0,16,8,18,0.00,4,Fog,238
2013-5-11,66,60,53,63,58,53,100,91,71,29.98,29.86,29.75,10,6,0,28,11,39,0.31,6,Fog-Rain-Thunderstorm,204
2013-5-12,64,56,48,59,53,32,100,83,47,29.83,29.68,29.62,10,8,0,22,12,30,0.16,5,Fog-Rain-Thunderstorm,237
2013-5-13,57,47,37,41,33,27,81,53,32,30.01,29.96,29.84,10,10,5,25,10,33,0.00,2,,264
2013-5-14,55,48,41,42,33,27,71,55,35,30.06,30.02,29.96,10,10,10,20,9,24,0.16,6,,305
2013-5-15,62,48,35,55,42,32,94,70,32,30.08,29.96,29.71,10,10,5,26,8,34,0.00,3,Rain,217
2013-5-16,73,60,48,54,48,41,100,66,31,29.80,29.72,29.68,10,8,0,24,12,32,0.00,2,Fog,247
2013-5-17,63,56,46,48,42,37,93,62,29,30.23,30.02,29.80,10,10,10,18,7,24,0.00,1,,18
2013-5-18,69,55,41,50,45,39,93,71,40,30.34,30.29,30.23,10,10,10,16,5,18,0.00,2,,248
2013-5-19,68,58,48,55,48,45,100,73,46,30.38,30.33,30.26,10,9,2,17,9,23,0.03,2,Rain,229
2013-5-20,69,62,55,63,58,54,100,91,78,30.25,30.05,29.96,10,6,0,16,11,22,0.16,5,Fog-Rain,229
2013-5-21,77,65,53,66,59,52,100,90,69,29.98,29.94,29.89,10,6,0,22,6,24,0.00,5,Fog-Thunderstorm,268
2013-5-22,66,58,50,63,56,50,100,92,77,29.99,29.95,29.92,10,6,0,16,9,25,0.00,8,Fog,221
2013-5-23,71,65,59,66,63,57,100,93,71,29.99,29.95,29.88,10,5,0,26,17,40,0.00,8,Fog-Rain,222
2013-5-24,64,58,51,64,61,52,100,98,87,29.88,29.76,29.70,10,4,1,31,15,50,0.47,8,Rain,207
2013-5-25,55,48,42,52,47,39,100,92,77,29.75,29.72,29.68,10,6,1,17,12,26,0.08,7,Rain,352
2013-5-26,57,49,41,44,38,36,93,66,44,30.11,29.88,29.73,10,10,10,21,15,31,0.00,7,Rain,296
2013-5-27,68,57,46,47,41,32,87,60,26,30.18,30.13,30.09,10,10,10,23,13,30,0.00,0,,263
2013-5-28,71,56,41,55,47,39,100,71,35,30.25,30.22,30.18,10,10,3,14,5,17,0.00,1,Rain,205
2013-5-29,66,62,57,59,57,54,100,93,78,30.23,30.12,30.04,10,6,1,20,12,30,0.16,8,Rain-Thunderstorm,203
2013-5-30,84,70,57,68,62,55,100,81,55,30.12,30.08,30.04,10,8,4,20,10,23,0.00,2,Rain-Thunderstorm,249
2013-5-31,87,72,58,66,61,55,94,70,43,30.11,30.06,30.00,10,9,6,21,7,24,0.05,0,Rain,254